Weather History for Rockland, ME

Change the Weather History Date:

Monday, January 21, 2013

  Actual Average Record
Temperature  
Mean Temperature 19 °F -  
Max Temperature 24 °F 25 °F 51 °F (2006)
Min Temperature 14 °F 11 °F -13 °F (2005)
Degree Days  
Heating Degree Days 46    
Moisture  
Dew Point 1 °F    
Average Humidity 47    
Maximum Humidity 93    
Minimum Humidity 28    
Precipitation  
Precipitation 0.00 in - - ()
Sea Level Pressure  
Sea Level Pressure 29.94 in    
Wind  
Wind Speed 12 mph (WNW)    
Max Wind Speed 23 mph    
Max Gust Speed 32 mph    
Visibility 9 miles    
Events      
Averages and records for this station are not official NWS values.
T = Trace of Precipitation, MM = Missing Value Source: NWS Daily Summary

Daily Weather History Graph

Daily Weather History Graph

Search for Another Location

Airport:

Trip Planner

Search our weather history database for the weather conditions in past years. The results will help you decide how hot, cold, wet, or windy it might be!

Date:

Astronomy

Jan. 21, 2013 Rise Set
Actual Time 7:04 AM EST 4:31 PM EST
Civil Twilight 6:32 AM EST 5:03 PM EST
Nautical Twilight 5:57 AM EST 5:38 PM EST
Astronomical Twilight 5:22 AM EST 6:13 PM EST
Moon 12:08 PM EST (1/21) 2:29 AM EST (1/21)
Length of Visible Light 10h 31m
Length of Day
9h 27m
Waxing Gibbous, 75% of the Moon is Illuminated
Jan 21
Waxing Gibbous
Jan 26
Full
Feb 3
Last Quarter
Feb 10
New
Feb 17
First Quarter

Hourly Weather History & Observations

Time (EST) Temp. Windchill Dew Point Humidity Pressure Visibility Wind Dir Wind Speed Gust Speed Precip Events Conditions
12:15 AM 24.8 °F 13.4 °F 6.8 °F 46% 29.81 in 10.0 mi WNW 12.7 mph 21.9 mph N/A   Scattered Clouds
12:35 AM 23.0 °F 11.1 °F 5.0 °F 46% 29.81 in 10.0 mi NW 12.7 mph 20.7 mph N/A   Partly Cloudy
12:55 AM 21.2 °F 10.1 °F 3.2 °F 46% 29.83 in 10.0 mi WNW 10.4 mph 21.9 mph N/A   Clear
1:15 AM 21.2 °F 10.9 °F 3.2 °F 46% 29.83 in 10.0 mi WNW 9.2 mph - N/A   Clear
1:35 AM 19.4 °F 8.6 °F 3.2 °F 49% 29.85 in 10.0 mi WNW 9.2 mph 20.7 mph N/A   Clear
1:55 AM 19.4 °F 6.6 °F 1.4 °F 46% 29.86 in 10.0 mi WNW 12.7 mph 21.9 mph N/A   Clear
2:15 AM 19.4 °F 7.2 °F 1.4 °F 46% 29.87 in 10.0 mi WNW 11.5 mph - N/A   Clear
2:35 AM 19.4 °F 6.0 °F 1.4 °F 46% 29.87 in 10.0 mi WNW 13.8 mph 18.4 mph N/A   Clear
2:55 AM 19.4 °F 4.5 °F 1.4 °F 46% 29.87 in 10.0 mi WNW 17.3 mph 25.3 mph N/A   Clear
3:15 AM 19.4 °F 5.0 °F 1.4 °F 46% 29.88 in 10.0 mi WNW 16.1 mph 24.2 mph N/A   Clear
3:35 AM 17.6 °F 1.3 °F -0.4 °F 45% 29.88 in 10.0 mi West 19.6 mph - N/A   Clear
3:56 AM 17.6 °F 0.1 °F -0.4 °F 45% 29.89 in 10.0 mi West 23.0 mph 32.2 mph N/A   Clear
4:15 AM 17.6 °F 2.2 °F -0.4 °F 45% 29.90 in 10.0 mi West 17.3 mph 25.3 mph N/A   Clear
4:35 AM 17.6 °F 0.9 °F -2.2 °F 42% 29.90 in 10.0 mi West 20.7 mph 32.2 mph N/A   Clear
4:55 AM 17.6 °F 2.2 °F -2.2 °F 42% 29.92 in 10.0 mi WNW 17.3 mph 28.8 mph N/A   Clear
5:15 AM 15.8 °F -1.1 °F -0.4 °F 49% 29.93 in 10.0 mi WNW 19.6 mph 27.6 mph N/A   Clear
5:55 AM 15.8 °F 2.1 °F -2.2 °F 45% 29.95 in 10.0 mi WNW 12.7 mph 24.2 mph N/A   Clear
6:15 AM 15.8 °F 0.3 °F -2.2 °F 45% 29.96 in 10.0 mi WNW 16.1 mph 25.3 mph N/A   Clear
6:35 AM 15.8 °F 0.9 °F -2.2 °F 45% 29.95 in 10.0 mi WNW 15.0 mph 23.0 mph N/A   Clear
6:55 AM 14.0 °F -1.4 °F -2.2 °F 49% 29.96 in 10.0 mi West 15.0 mph 26.5 mph N/A   Clear
7:15 AM 14.0 °F -0.2 °F -2.2 °F 49% 29.98 in 10.0 mi West 12.7 mph 20.7 mph N/A   Clear
7:35 AM 14.0 °F 0.5 °F -2.2 °F 49% 29.98 in 10.0 mi WNW 11.5 mph 17.3 mph N/A   Clear
7:55 AM 14.0 °F -0.8 °F -0.4 °F 53% 29.99 in 10.0 mi WNW 13.8 mph 17.3 mph N/A   Clear
8:15 AM 15.8 °F 2.1 °F -2.2 °F 45% 30.00 in 10.0 mi West 12.7 mph 20.7 mph N/A   Clear
8:35 AM 15.8 °F 2.1 °F -2.2 °F 45% 30.00 in 10.0 mi WNW 12.7 mph 23.0 mph N/A   Clear
8:55 AM 15.8 °F 1.4 °F -2.2 °F 45% 30.01 in 10.0 mi WNW 13.8 mph - N/A   Clear
9:15 AM 17.6 °F 3.7 °F -4.0 °F 38% 30.01 in 10.0 mi West 13.8 mph - N/A   Clear
9:35 AM 17.6 °F 3.2 °F -4.0 °F 38% 30.02 in 10.0 mi WNW 15.0 mph 24.2 mph N/A   Clear
9:55 AM 17.6 °F 3.7 °F -2.2 °F 42% 30.03 in 10.0 mi West 13.8 mph 20.7 mph N/A   Clear
10:15 AM 19.4 °F 5.5 °F -2.2 °F 39% 30.03 in 10.0 mi West 15.0 mph 18.4 mph N/A   Clear
10:35 AM 19.4 °F 5.5 °F -2.2 °F 39% 30.02 in 10.0 mi West 15.0 mph 18.4 mph N/A   Clear
10:55 AM 19.4 °F 5.0 °F -2.2 °F 39% 30.01 in 10.0 mi West 16.1 mph 19.6 mph N/A   Clear
11:15 AM 19.4 °F 5.5 °F -2.2 °F 39% 29.98 in 10.0 mi WNW 15.0 mph 20.7 mph N/A   Clear
11:35 AM 21.2 °F 7.8 °F -4.0 °F 33% 29.98 in 10.0 mi West 15.0 mph 19.6 mph N/A   Clear
11:55 AM 21.2 °F 6.8 °F -4.0 °F 33% 29.99 in 10.0 mi West 17.3 mph 24.2 mph N/A   Clear
12:15 PM 21.2 °F 8.3 °F -5.8 °F 30% 29.98 in 10.0 mi WNW 13.8 mph 24.2 mph N/A   Clear
12:35 PM 21.2 °F 8.9 °F -5.8 °F 30% 29.97 in 10.0 mi WNW 12.7 mph 19.6 mph N/A   Clear
12:55 PM 21.2 °F 9.5 °F -5.8 °F 30% 29.96 in 10.0 mi West 11.5 mph - N/A   Clear
1:15 PM 23.0 °F 13.1 °F -4.0 °F 31% 29.96 in 10.0 mi WNW 9.2 mph - N/A   Clear
1:35 PM 23.0 °F 11.7 °F -5.8 °F 28% 29.96 in 10.0 mi WNW 11.5 mph - N/A   Clear
1:55 PM 23.0 °F 12.4 °F -5.8 °F 28% 29.96 in 10.0 mi West 10.4 mph - N/A   Clear
2:15 PM 23.0 °F 11.7 °F -5.8 °F 28% 29.96 in 10.0 mi West 11.5 mph 18.4 mph N/A   Clear
2:35 PM 23.0 °F 11.7 °F -5.8 °F 28% 29.96 in 10.0 mi WNW 11.5 mph - N/A   Scattered Clouds
2:55 PM 23.0 °F 13.1 °F -4.0 °F 31% 29.97 in 10.0 mi WSW 9.2 mph - N/A   Overcast
3:15 PM 23.0 °F 12.4 °F -4.0 °F 31% 29.97 in 10.0 mi WSW 10.4 mph - N/A   Overcast
3:35 PM 23.0 °F 14.7 °F -4.0 °F 31% 29.96 in 10.0 mi WSW 6.9 mph - N/A   Overcast
3:55 PM 23.0 °F 15.8 °F -4.0 °F 31% 29.96 in 10.0 mi WSW 5.8 mph - N/A   Overcast
4:15 PM 23.0 °F 17.0 °F -4.0 °F 31% 29.96 in 10.0 mi SW 4.6 mph - N/A   Mostly Cloudy
4:35 PM 23.0 °F - -2.2 °F 33% 29.96 in 10.0 mi Calm Calm - N/A   Partly Cloudy
4:55 PM 23.0 °F - -2.2 °F 33% 29.95 in 10.0 mi Calm Calm - N/A   Clear
5:15 PM 21.2 °F - -0.4 °F 39% 29.95 in 10.0 mi Calm Calm - N/A   Clear
5:35 PM 21.2 °F - 3.2 °F 46% 29.95 in 10.0 mi Calm Calm - N/A   Clear
5:55 PM 21.2 °F 16.4 °F 3.2 °F 46% 29.94 in 10.0 mi NNE 3.5 mph - N/A   Clear
6:15 PM 21.2 °F 16.4 °F 3.2 °F 46% 29.93 in 10.0 mi North 3.5 mph - N/A   Clear
6:35 PM 21.2 °F - -0.4 °F 39% 29.94 in 10.0 mi Calm Calm - N/A   Partly Cloudy
6:55 PM 21.2 °F - 1.4 °F 42% 29.94 in 10.0 mi Calm Calm - N/A   Mostly Cloudy
7:15 PM 23.0 °F 18.4 °F 3.2 °F 43% 29.94 in 10.0 mi NNE 3.5 mph - N/A   Overcast
7:55 PM 23.0 °F 14.7 °F 10.4 °F 59% 29.95 in 10.0 mi WSW 6.9 mph - N/A   Overcast
8:15 PM 23.0 °F - 12.2 °F 63% 29.94 in 10.0 mi Calm Calm - N/A   Overcast
8:55 PM 21.2 °F 13.6 °F 12.2 °F 68% 29.94 in 10.0 mi WNW 5.8 mph - N/A   Overcast
9:15 PM 21.2 °F 14.9 °F 12.2 °F 68% 29.94 in 6.0 mi NW 4.6 mph - N/A   Overcast
9:35 PM 21.2 °F - 14.0 °F 74% 29.94 in 5.0 mi Calm Calm - N/A   Overcast
9:55 PM 19.4 °F 12.8 °F 14.0 °F 80% 29.95 in 4.0 mi NNW 4.6 mph - N/A   Overcast
10:15 PM 19.4 °F 12.8 °F 15.8 °F 86% 29.94 in 2.0 mi North 4.6 mph - N/A   Overcast
10:35 PM 19.4 °F 12.8 °F 17.6 °F 93% 29.92 in 2.5 mi NNE 4.6 mph - N/A   Overcast
10:55 PM 19.4 °F 11.5 °F 15.8 °F 86% 29.90 in 3.0 mi NNE 5.8 mph - N/A   Mostly Cloudy
11:15 PM 19.4 °F 7.2 °F 17.6 °F 93% 29.87 in 4.0 mi ENE 11.5 mph 17.3 mph N/A   Mostly Cloudy
11:35 PM 19.4 °F 8.6 °F 15.8 °F 86% 29.86 in 10.0 mi NE 9.2 mph - N/A   Mostly Cloudy
11:55 PM 19.4 °F 8.6 °F 17.6 °F 93% 29.84 in 10.0 mi ENE 9.2 mph - N/A   Overcast